K7AZ Weather Reports


Display with metric or nautical units.
time (UTC)temp
F
wind
direction
speed
MPH
gust
MPH
rain 1hr
in
rain 24hr
in
rain mn
in
humidity
%
barometer
mb
20260502130639 48 288 3.0 0.0 0.00 0.00 0.00 72 1012.0
20260502130133 48 293 2.0 0.0 0.00 0.00 0.00 72 1011.9
20260502123603 48 276 5.0 11.0 0.00 0.00 0.00 72 1012.1
20260502123057 48 262 2.0 0.0 0.00 0.00 0.00 72 1012.0
20260502122551 48 274 3.0 0.0 0.00 0.00 0.00 72 1012.0
20260502122045 48 270 2.0 0.0 0.00 0.00 0.00 72 1012.0
20260502121539 48 201 0.0 0.0 0.00 0.00 0.00 72 1012.0
20260502121033 48 274 4.0 0.0 0.00 0.00 0.00 72 1012.0
20260502120527 48 282 6.0 0.0 0.00 0.00 0.00 72 1012.0
20260502115515 48 281 4.0 0.0 0.00 0.00 0.00 72 1011.9
20260502115009 48 285 4.0 0.0 0.00 0.00 0.00 72 1011.8
20260502114503 48 276 3.0 0.0 0.00 0.00 0.00 72 1011.8
20260502113957 48 286 4.0 0.0 0.00 0.00 0.00 72 1011.9
20260502113451 48 285 4.0 0.0 0.00 0.00 0.00 72 1011.8
20260502112945 48 273 2.0 12.0 0.00 0.00 0.00 73 1011.8
20260502112439 48 283 6.0 12.0 0.00 0.00 0.00 73 1011.9
20260502111933 48 270 4.0 0.0 0.00 0.00 0.00 73 1011.9
20260502111427 48 281 4.0 11.0 0.00 0.00 0.00 73 1011.9
20260502110921 48 278 6.0 11.0 0.00 0.00 0.00 73 1011.8
20260502110415 48 278 4.0 0.0 0.00 0.00 0.00 73 1011.8
20260502105909 48 278 4.0 11.0 0.00 0.00 0.00 73 1011.8
20260502105403 48 277 5.0 11.0 0.00 0.00 0.00 73 1011.8
20260502104857 48 291 5.0 0.0 0.00 0.00 0.00 73 1011.7
20260502104351 49 285 3.0 0.0 0.00 0.00 0.00 73 1011.8
20260502103845 49 290 1.0 0.0 0.00 0.00 0.00 73 1011.8
20260502103339 49 291 1.0 0.0 0.00 0.00 0.00 73 1011.8
20260502102833 49 288 4.0 0.0 0.00 0.00 0.00 73 1011.7
20260502102327 49 290 3.0 0.0 0.00 0.00 0.00 73 1011.7
20260502101821 49 276 4.0 0.0 0.00 0.00 0.00 73 1011.6
20260502101315 49 288 4.0 0.0 0.00 0.00 0.00 73 1011.6
20260502100809 49 297 2.0 0.0 0.00 0.00 0.00 73 1011.6
20260502100303 49 297 2.0 0.0 0.00 0.00 0.00 73 1011.6
20260502091203 49 290 3.0 0.0 0.00 0.00 0.00 73 1011.6
20260502090657 48 293 5.0 0.0 0.00 0.00 0.00 73 1011.7
20260502090151 48 300 2.0 0.0 0.00 0.00 0.00 73 1011.7
20260502071445 49 315 2.0 0.0 0.00 0.00 0.00 73 1012.2
20260502070939 49 305 2.0 0.0 0.00 0.00 0.00 73 1012.3
20260502070433 49 315 3.0 0.0 0.00 0.00 0.00 73 1012.3
20260502065927 49 313 1.0 0.0 0.00 0.00 0.00 73 1012.4
20260502065421 49 322 3.0 0.0 0.00 0.00 0.00 73 1012.4
20260502064915 49 321 1.0 0.0 0.00 0.00 0.00 73 1012.4
20260502064409 49 323 2.0 0.0 0.00 0.00 0.00 73 1012.4
20260502063903 49 317 4.0 0.0 0.00 0.00 0.00 73 1012.5
20260502063357 49 309 3.0 12.0 0.00 0.00 0.00 73 1012.5
20260502062851 49 290 5.0 12.0 0.00 0.00 0.00 73 1012.5
20260502062345 49 306 3.0 0.0 0.00 0.00 0.00 73 1012.5
20260502061839 49 302 4.0 0.0 0.00 0.00 0.00 73 1012.6
20260502061333 49 296 5.0 0.0 0.00 0.00 0.00 73 1012.6
20260502060827 49 302 6.0 0.0 0.00 0.00 0.00 73 1012.5
20260502060321 49 314 5.0 0.0 0.00 0.00 0.00 73 1012.6
20260502055815 49 306 4.0 11.0 0.00 0.00 0.00 73 1012.7
20260502055309 49 292 6.0 13.0 0.00 0.00 0.00 73 1012.7
20260502054803 49 293 7.0 13.0 0.00 0.00 0.00 73 1012.7
20260502054257 49 298 4.0 14.0 0.00 0.00 0.00 74 1012.7
20260502053751 49 298 6.0 14.0 0.00 0.00 0.00 74 1012.7
20260502053245 49 290 7.0 14.0 0.00 0.00 0.00 74 1012.7
20260502052739 49 291 6.0 12.0 0.00 0.00 0.00 74 1012.7
20260502052233 49 296 8.0 12.0 0.00 0.00 0.00 74 1012.7
20260502051727 49 297 4.0 0.0 0.00 0.00 0.00 74 1012.7
20260502051221 49 298 4.0 10.0 0.00 0.00 0.00 74 1012.8
20260502050715 49 300 4.0 0.0 0.00 0.00 0.00 74 1012.7
20260502050209 49 310 2.0 0.0 0.00 0.00 0.00 74 1012.7
20260502045703 49 307 3.0 0.0 0.00 0.00 0.00 74 1012.8
20260502045157 49 302 5.0 0.0 0.00 0.00 0.00 74 1012.7
20260502044651 49 301 4.0 0.0 0.00 0.00 0.00 74 1012.7
20260502044145 49 305 5.0 11.0 0.00 0.00 0.00 74 1012.8
20260502043639 49 305 5.0 11.0 0.00 0.00 0.00 74 1012.7
20260502043133 49 312 4.0 0.0 0.00 0.00 0.00 74 1012.7
20260502042627 49 305 4.0 0.0 0.00 0.00 0.00 74 1012.7
20260502042121 49 309 3.0 11.0 0.00 0.00 0.00 74 1012.7
20260502041615 49 311 4.0 11.0 0.00 0.00 0.00 74 1012.7
20260502041109 49 310 5.0 11.0 0.00 0.00 0.00 74 1012.7
20260502040603 49 310 3.0 0.0 0.00 0.00 0.00 74 1012.6
20260502040057 49 307 3.0 12.0 0.00 0.00 0.00 74 1012.6
20260502035551 49 305 3.0 16.0 0.00 0.00 0.00 74 1012.6
20260502035045 49 305 6.0 16.0 0.00 0.00 0.00 74 1012.5
20260502034539 49 300 7.0 15.0 0.00 0.00 0.00 74 1012.4
20260502034033 49 297 6.0 13.0 0.00 0.00 0.00 74 1012.4
20260502033527 49 291 7.0 15.0 0.00 0.00 0.00 74 1012.3
20260502033021 49 289 6.0 15.0 0.00 0.00 0.00 74 1012.3
20260502032515 49 283 9.0 14.0 0.00 0.00 0.00 74 1012.2
20260502032009 49 284 11.0 17.0 0.00 0.00 0.00 74 1012.2
20260502031503 49 291 10.0 14.0 0.00 0.00 0.00 74 1012.2
20260502030957 49 286 11.0 16.0 0.00 0.00 0.00 74 1012.1
20260502030451 49 284 12.0 16.0 0.00 0.00 0.00 75 1012.0
20260502025945 49 283 7.0 17.0 0.00 0.00 0.00 75 1012.1
20260502025439 49 280 10.0 19.0 0.00 0.00 0.00 75 1012.0
20260502024933 49 279 10.0 19.0 0.00 0.00 0.00 75 1012.0
20260502024427 49 287 13.0 17.0 0.00 0.00 0.00 75 1011.9
20260502023921 49 278 9.0 18.0 0.00 0.00 0.00 75 1011.9
20260502023415 49 279 9.0 19.0 0.00 0.00 0.00 75 1011.9
20260502022909 49 288 12.0 19.0 0.00 0.00 0.00 75 1011.8
20260502022403 49 285 12.0 18.0 0.00 0.00 0.00 75 1011.8
20260502021857 50 285 11.0 18.0 0.00 0.00 0.00 75 1011.8
20260502021351 50 279 8.0 20.0 0.00 0.00 0.00 75 1011.8
20260502020845 50 273 7.0 20.0 0.00 0.00 0.00 75 1011.8
20260502020339 50 277 9.0 17.0 0.00 0.00 0.00 75 1011.7
20260502015833 50 275 7.0 17.0 0.00 0.00 0.00 75 1011.7
20260502015327 50 281 12.0 17.0 0.00 0.00 0.00 75 1011.7
20260502014821 50 266 5.0 15.0 0.00 0.00 0.00 75 1011.7
20260502014315 51 254 3.0 14.0 0.00 0.00 0.00 75 1011.6
20260502013809 51 251 3.0 14.0 0.00 0.00 0.00 75 1011.7
20260502013303 51 230 2.0 15.0 0.00 0.00 0.00 76 1011.6
20260502012757 51 260 5.0 16.0 0.00 0.00 0.00 76 1011.6
20260502012251 51 273 7.0 16.0 0.00 0.00 0.00 76 1011.6
20260502011745 51 269 5.0 16.0 0.00 0.00 0.00 76 1011.5
20260502011239 51 271 6.0 16.0 0.00 0.00 0.00 76 1011.6
20260502010733 52 275 6.0 13.0 0.00 0.00 0.00 76 1011.5
20260502010227 52 220 2.0 16.0 0.00 0.00 0.00 76 1011.5
20260502005721 52 264 6.0 16.0 0.00 0.00 0.00 76 1011.6
20260502005215 52 234 2.0 16.0 0.00 0.00 0.00 76 1011.5
20260502004709 52 253 4.0 16.0 0.00 0.00 0.00 76 1011.5
20260502004203 52 258 5.0 13.0 0.00 0.00 0.00 76 1011.6
20260502003657 53 133 0.0 0.0 0.00 0.00 0.00 76 1011.7
20260502003151 53 150 1.0 13.0 0.00 0.00 0.00 76 1011.6
20260502002645 53 153 1.0 13.0 0.00 0.00 0.00 76 1011.6
20260502002139 54 227 2.0 14.0 0.00 0.00 0.00 76 1011.6
20260502001633 54 250 3.0 14.0 0.00 0.00 0.00 76 1011.6
20260502001127 55 178 1.0 0.0 0.00 0.00 0.00 76 1011.6
20260502000621 55 192 1.0 0.0 0.00 0.00 0.00 76 1011.6
20260502000115 56 177 1.0 13.0 0.00 0.00 0.00 76 1011.6
20260501235609 56 246 3.0 13.0 0.00 0.00 0.00 76 1011.6
20260501235103 56 223 2.0 12.0 0.00 0.00 0.00 76 1011.7
20260501234557 56 218 2.0 12.0 0.00 0.00 0.00 77 1011.6
20260501234051 56 221 1.0 0.0 0.00 0.00 0.00 76 1011.7
20260501233545 57 198 2.0 0.0 0.00 0.00 0.00 76 1011.6
20260501233039 57 142 1.0 0.0 0.00 0.00 0.00 76 1011.6
20260501232533 57 235 2.0 0.0 0.00 0.00 0.00 76 1011.8
20260501232027 58 130 1.0 0.0 0.00 0.00 0.00 76 1011.8
20260501231521 58 129 1.0 0.0 0.00 0.00 0.00 76 1011.8
20260501231015 58 169 1.0 0.0 0.00 0.00 0.00 76 1011.8
20260501230509 58 129 1.0 0.0 0.00 0.00 0.00 76 1011.8
20260501230003 57 152 1.0 13.0 0.00 0.00 0.00 76 1012.0
20260501225457 57 244 2.0 15.0 0.00 0.00 0.00 76 1012.0
20260501224951 58 252 3.0 15.0 0.00 0.00 0.00 76 1012.1
20260501224445 57 120 1.0 15.0 0.00 0.00 0.00 76 1012.1
20260501223939 57 203 2.0 13.0 0.00 0.00 0.00 76 1012.1
20260501223433 57 249 3.0 15.0 0.00 0.00 0.00 76 1012.2
20260501222927 57 255 5.0 15.0 0.00 0.00 0.00 76 1012.2
20260501222421 58 234 2.0 13.0 0.00 0.00 0.00 76 1012.3
20260501221915 58 229 3.0 14.0 0.00 0.00 0.00 76 1012.4
20260501221409 59 214 2.0 14.0 0.00 0.00 0.00 76 1012.4
20260501220903 59 243 2.0 15.0 0.00 0.00 0.00 76 1012.4
20260501220357 60 268 3.0 14.0 0.00 0.00 0.00 76 1012.4
20260501215851 60 256 3.0 14.0 0.00 0.00 0.00 76 1012.5
20260501215345 60 259 4.0 15.0 0.00 0.00 0.00 76 1012.5
20260501214839 60 258 5.0 15.0 0.00 0.00 0.00 76 1012.5
20260501214333 60 158 1.0 17.0 0.00 0.00 0.00 76 1012.6
20260501213827 60 246 3.0 17.0 0.00 0.00 0.00 76 1012.5
20260501213321 60 196 2.0 17.0 0.00 0.00 0.00 76 1012.6
20260501212815 60 240 3.0 17.0 0.00 0.00 0.00 76 1012.6
20260501212309 60 254 4.0 17.0 0.00 0.00 0.00 75 1012.6
20260501211803 61 250 4.0 16.0 0.00 0.00 0.00 75 1012.6
20260501211257 62 258 4.0 15.0 0.00 0.00 0.00 75 1012.6
20260501210751 62 261 4.0 15.0 0.00 0.00 0.00 75 1012.6
20260501210245 63 259 3.0 14.0 0.00 0.00 0.00 75 1012.6
20260501205739 63 241 2.0 11.0 0.00 0.00 0.00 75 1012.6
20260501205233 63 215 2.0 13.0 0.00 0.00 0.00 75 1012.6
20260501204727 62 265 3.0 13.0 0.00 0.00 0.00 75 1012.7
20260501204221 62 275 5.0 13.0 0.00 0.00 0.00 75 1012.7
20260501203715 62 246 3.0 13.0 0.00 0.00 0.00 74 1012.6
20260501203209 62 249 2.0 13.0 0.00 0.00 0.00 74 1012.7
20260501202703 62 235 2.0 12.0 0.00 0.00 0.00 74 1012.7
20260501202157 63 274 4.0 11.0 0.00 0.00 0.00 74 1012.7
20260501201651 63 264 3.0 12.0 0.00 0.00 0.00 73 1012.8
20260501201145 63 223 1.0 12.0 0.00 0.00 0.00 73 1012.7
20260501200639 63 228 2.0 10.0 0.00 0.00 0.00 73 1012.8
20260501200133 63 273 4.0 0.0 0.00 0.00 0.00 72 1012.7
20260501195627 63 276 3.0 0.0 0.00 0.00 0.00 72 1012.8
20260501195121 62 285 4.0 0.0 0.00 0.00 0.00 72 1012.9
20260501194615 62 286 2.0 0.0 0.00 0.00 0.00 71 1012.9
20260501194109 61 288 3.0 0.0 0.00 0.00 0.00 71 1012.9
20260501193603 62 293 1.0 0.0 0.00 0.00 0.00 71 1013.0
20260501193057 61 278 2.0 0.0 0.00 0.00 0.00 71 1013.0
20260501192551 61 285 1.0 0.0 0.00 0.00 0.00 70 1013.1
20260501192045 61 326 1.0 0.0 0.00 0.00 0.00 70 1013.1
20260501191539 60 347 1.0 0.0 0.00 0.00 0.00 70 1013.1
20260501191033 60 297 2.0 0.0 0.00 0.00 0.00 70 1013.1
20260501190527 60 309 1.0 0.0 0.00 0.00 0.00 69 1013.1
20260501190021 60 299 0.0 0.0 0.00 0.00 0.00 69 1013.2
20260501185515 59 353 1.0 0.0 0.00 0.00 0.00 69 1013.2
20260501185009 60 333 1.0 0.0 0.00 0.00 0.00 69 1013.3
20260501184503 59 355 1.0 0.0 0.00 0.00 0.00 68 1013.3
20260501183957 58 339 2.0 0.0 0.00 0.00 0.00 68 1013.4
20260501183451 58 345 1.0 0.0 0.00 0.00 0.00 68 1013.4
20260501182945 60 68 0.0 0.0 0.00 0.00 0.00 68 1013.4
20260501182439 59 45 1.0 0.0 0.00 0.00 0.00 67 1013.5
20260501181933 58 103 1.0 0.0 0.00 0.00 0.00 67 1013.6
20260501181427 57 86 1.0 0.0 0.00 0.00 0.00 67 1013.6
20260501180921 56 86 1.0 0.0 0.00 0.00 0.00 67 1013.7
20260501180415 56 101 2.0 0.0 0.00 0.00 0.00 66 1013.6
20260501175909 55 83 2.0 0.0 0.00 0.00 0.00 66 1013.7
20260501175403 56 105 1.0 0.0 0.00 0.00 0.00 66 1013.6
20260501174857 55 104 0.0 0.0 0.00 0.00 0.00 66 1013.6
20260501174351 55 120 0.0 0.0 0.00 0.00 0.00 66 1013.6
20260501173845 54 147 0.0 0.0 0.00 0.00 0.00 65 1013.6
20260501173339 54 145 0.0 0.0 0.00 0.00 0.00 65 1013.6
20260501172833 55 121 0.0 0.0 0.00 0.00 0.00 65 1013.7
20260501172327 54 121 0.0 0.0 0.00 0.00 0.00 65 1013.7
20260501171821 54 95 0.0 0.0 0.00 0.00 0.00 65 1013.7
20260501171315 54 111 0.0 0.0 0.00 0.00 0.00 65 1013.7
20260501170809 54 93 0.0 0.0 0.00 0.00 0.00 64 1013.6
20260501170303 54 82 0.0 0.0 0.00 0.00 0.00 64 1013.6
20260501165757 54 100 0.0 0.0 0.00 0.00 0.00 64 1013.6
20260501165251 54 103 0.0 0.0 0.00 0.00 0.00 64 1013.6
20260501164745 53 91 1.0 0.0 0.00 0.00 0.00 64 1013.6
20260501164239 53 99 1.0 0.0 0.00 0.00 0.00 64 1013.7
20260501163733 53 100 1.0 0.0 0.00 0.00 0.00 63 1013.6
20260501163227 53 107 1.0 0.0 0.00 0.00 0.00 63 1013.6
20260501162721 52 100 1.0 0.0 0.00 0.00 0.00 63 1013.6
20260501162215 52 108 1.0 0.0 0.00 0.00 0.00 63 1013.5
20260501161709 52 94 1.0 0.0 0.00 0.00 0.00 63 1013.6
20260501161203 52 96 1.0 0.0 0.00 0.00 0.00 63 1013.5
20260501160657 52 98 1.0 0.0 0.00 0.00 0.00 63 1013.5
20260501160151 51 103 1.0 0.0 0.00 0.00 0.00 63 1013.4
20260501155645 51 107 1.0 0.0 0.00 0.00 0.00 63 1013.4
20260501155139 51 105 1.0 0.0 0.00 0.00 0.00 63 1013.4
20260501154633 51 104 1.0 0.0 0.00 0.00 0.00 63 1013.3
20260501154127 51 98 1.0 0.0 0.00 0.00 0.00 63 1013.3
20260501153621 51 107 1.0 0.0 0.00 0.00 0.00 63 1013.3
20260501153115 51 98 1.0 0.0 0.00 0.00 0.00 63 1013.3
20260501152609 50 107 1.0 0.0 0.00 0.00 0.00 63 1013.3
20260501152103 51 93 1.0 0.0 0.00 0.00 0.00 63 1013.2
20260501151557 50 104 1.0 0.0 0.00 0.00 0.00 63 1013.2
20260501151051 50 97 1.0 0.0 0.00 0.00 0.00 63 1013.1
20260501150545 50 100 1.0 0.0 0.00 0.00 0.00 63 1013.1
20260501150039 50 107 1.0 0.0 0.00 0.00 0.00 63 1013.0
20260501145533 50 98 1.0 0.0 0.00 0.00 0.00 63 1013.0
20260501145027 49 101 1.0 0.0 0.00 0.00 0.00 63 1013.0